KJ4AJP Weather Reports


time (UTC)temp
F
wind
direction
speed
knots
gust
knots
rain 1hr
in
rain 24hr
in
rain mn
in
humidity
%
barometer
mb
20260505152730 62 40 0.9 1.7 0.00 0.26 0.26 93 1009.7
20260505152226 61 64 0.0 0.0 0.00 0.26 0.26 94 1009.5
20260505151726 61 70 0.9 1.7 0.00 0.26 0.26 94 1009.5
20260505151224 60 329 0.9 1.7 0.00 0.26 0.26 94 1009.1
20260505150720 60 77 1.7 2.6 0.00 0.26 0.26 95 1009.4
20260505150218 60 260 4.3 6.1 0.00 0.26 0.26 95 1009.2
20260505140651 59 47 0.0 0.0 0.24 0.19 0.19 93 1009.9
20260505140148 59 115 1.7 2.6 0.24 0.17 0.17 93 1010.2
20260505130111 64 18 0.9 0.9 0.00 0.00 0.00 70 1009.4
20260505124601 64 82 1.7 3.5 0.00 0.00 0.00 70 1009.4
20260505124057 64 59 0.9 1.7 0.00 0.00 0.00 71 1009.6
20260505123554 64 29 0.9 0.9 0.00 0.00 0.00 71 1009.5
20260505123050 63 105 1.7 2.6 0.00 0.00 0.00 71 1009.2
20260505122547 63 197 1.7 1.7 0.00 0.00 0.00 71 1009.3
20260505122044 63 54 0.9 0.9 0.00 0.00 0.00 72 1009.0
20260505121540 63 133 1.7 1.7 0.00 0.00 0.00 72 1009.2
20260505121038 63 66 0.0 0.9 0.00 0.00 0.00 72 1009.1
20260505120534 63 79 0.9 0.9 0.00 0.00 0.00 72 1009.0
20260505120029 62 81 0.9 0.9 0.00 0.00 0.00 72 1008.9
20260505115524 62 4 0.9 1.7 0.00 0.00 0.00 72 1008.9
20260505115022 62 257 1.7 1.7 0.00 0.00 0.00 72 1008.7
20260505114519 62 68 0.9 0.9 0.00 0.00 0.00 72 1008.8
20260505114015 62 343 0.9 1.7 0.00 0.00 0.00 72 1008.8
20260505113512 62 12 0.0 0.9 0.00 0.00 0.00 72 1008.8
20260505113009 62 44 0.0 0.9 0.00 0.00 0.00 72 1008.5
20260505112505 62 232 1.7 1.7 0.00 0.00 0.00 72 1008.6
20260505112003 62 51 0.0 0.0 0.00 0.00 0.00 72 1008.6
20260505111502 62 55 0.0 0.0 0.00 0.00 0.00 72 1008.7
20260505110958 62 47 0.0 0.9 0.00 0.00 0.00 71 1008.4
20260505110455 62 60 0.0 0.0 0.00 0.00 0.00 71 1008.4
20260505101927 62 65 0.0 0.0 0.00 0.00 0.00 69 1008.5
20260505101426 63 52 0.0 0.0 0.00 0.00 0.00 69 1008.7
20260505100922 63 64 0.0 0.0 0.00 0.00 0.00 68 1008.6
20260505100420 63 65 0.0 0.0 0.00 0.00 0.00 68 1008.6
20260505095915 63 46 0.9 0.9 0.00 0.00 0.00 68 1008.7
20260505095412 63 46 0.0 0.0 0.00 0.00 0.00 68 1008.7
20260505094908 63 68 0.0 0.0 0.00 0.00 0.00 68 1008.8
20260505094406 63 7 0.0 0.9 0.00 0.00 0.00 67 1008.9
20260505093901 64 54 0.0 0.0 0.00 0.00 0.00 66 1008.9
20260505093359 64 59 0.0 0.0 0.00 0.00 0.00 66 1008.8
20260505092856 64 167 0.9 1.7 0.00 0.00 0.00 66 1008.9
20260505092354 64 66 0.0 0.0 0.00 0.00 0.00 65 1009.0
20260505091851 64 49 0.0 0.0 0.00 0.00 0.00 65 1008.9
20260505091349 64 66 0.0 0.9 0.00 0.00 0.00 65 1008.6
20260505090846 64 59 0.0 0.0 0.00 0.00 0.00 64 1008.6
20260505090345 64 45 0.9 0.9 0.00 0.00 0.00 64 1008.6
20260505085841 64 176 0.9 1.7 0.00 0.00 0.00 64 1008.5
20260505085339 64 93 0.0 0.9 0.00 0.00 0.00 64 1008.6
20260505084837 64 50 0.9 0.9 0.00 0.00 0.00 63 1008.5
20260505084335 64 41 0.0 0.9 0.00 0.00 0.00 63 1008.3
20260505083832 64 43 0.9 1.7 0.00 0.00 0.00 63 1008.5
20260505083330 64 44 0.0 0.0 0.00 0.00 0.00 63 1008.2
20260505082826 64 359 0.0 0.9 0.00 0.00 0.00 63 1008.1
20260505082322 64 65 0.0 0.9 0.00 0.00 0.00 63 1008.2
20260505081819 64 54 0.9 0.9 0.00 0.00 0.00 63 1008.3
20260505081316 64 252 1.7 5.2 0.00 0.00 0.00 63 1008.0
20260505080812 64 124 0.9 0.9 0.00 0.00 0.00 64 1008.3
20260505080308 64 25 0.9 0.9 0.00 0.00 0.00 64 1008.2
20260505075804 64 47 0.0 0.0 0.00 0.00 0.00 64 1008.5
20260505075304 64 45 0.0 0.9 0.00 0.00 0.00 63 1008.4
20260505074758 65 27 0.9 0.9 0.00 0.00 0.00 62 1008.5
20260505074256 65 90 0.0 0.0 0.00 0.00 0.00 62 1008.5
20260505073753 65 73 0.9 0.9 0.00 0.00 0.00 61 1008.4
20260505073251 65 32 0.9 1.7 0.00 0.00 0.00 61 1008.4
20260505072747 65 357 0.9 1.7 0.00 0.00 0.00 61 1008.3
20260505072243 65 358 1.7 2.6 0.00 0.00 0.00 61 1008.2
20260505071739 65 197 2.6 2.6 0.00 0.00 0.00 61 1008.1
20260505071236 65 50 0.9 0.9 0.00 0.00 0.00 61 1008.2
20260505070734 65 300 1.7 1.7 0.00 0.00 0.00 61 1008.3
20260505070230 65 0 1.7 2.6 0.00 0.00 0.00 61 1008.3
20260505065726 65 50 0.0 0.9 0.00 0.00 0.00 61 1008.3
20260505065223 65 16 1.7 1.7 0.00 0.00 0.00 61 1008.4
20260505064720 65 36 0.9 0.9 0.00 0.00 0.00 61 1008.5
20260505064218 65 69 0.9 0.9 0.00 0.00 0.00 62 1009.0
20260505063715 65 51 0.0 0.0 0.00 0.00 0.00 61 1008.9
20260505063211 65 255 2.6 2.6 0.00 0.00 0.00 61 1009.1
20260505062707 65 50 0.0 0.0 0.00 0.00 0.00 61 1009.3
20260505062205 65 16 0.9 1.7 0.00 0.00 0.00 61 1009.4
20260505061702 65 131 2.6 3.5 0.00 0.00 0.00 61 1009.3
20260505061200 65 189 1.7 1.7 0.00 0.00 0.00 60 1009.2
20260505060657 65 44 0.0 0.9 0.00 0.00 0.00 60 1009.4
20260505060154 65 32 0.0 0.9 0.00 0.00 0.00 60 1009.5
20260505055649 65 46 0.9 0.9 0.00 0.00 0.00 60 1009.3
20260505055146 65 73 0.0 0.9 0.00 0.00 0.00 60 1009.4
20260505054643 66 61 0.9 0.9 0.00 0.00 0.00 60 1009.6
20260505054141 65 66 0.0 0.0 0.00 0.00 0.00 60 1009.5
20260505053639 65 71 0.9 0.9 0.00 0.00 0.00 60 1009.8
20260505053135 65 46 0.0 0.9 0.00 0.00 0.00 60 1009.6
20260505052632 66 56 0.9 0.9 0.00 0.00 0.00 60 1009.5
20260505052129 65 34 0.0 0.9 0.00 0.00 0.00 60 1009.6
20260505051626 65 47 0.9 0.9 0.00 0.00 0.00 60 1009.6
20260505051124 65 59 0.0 0.9 0.00 0.00 0.00 61 1009.8
20260505050621 65 44 0.0 0.9 0.00 0.00 0.00 60 1009.5
20260505050120 65 51 0.9 0.9 0.00 0.00 0.00 60 1009.8
20260505041549 66 351 0.9 1.7 0.00 0.00 0.00 58 1009.8
20260505041047 66 80 0.0 0.9 0.00 0.00 0.00 58 1009.8
20260505040544 66 356 1.7 1.7 0.00 0.00 0.00 58 1009.8
20260505040041 66 333 1.7 1.7 0.00 0.00 0.00 59 1009.8
20260505035537 66 49 0.9 1.7 0.00 0.00 0.00 59 1009.8
20260505035034 66 51 0.0 0.0 0.00 0.00 0.00 59 1009.5
20260505034530 66 71 0.0 0.9 0.00 0.00 0.00 58 1009.8
20260505034027 67 13 0.9 0.9 0.00 0.00 0.00 58 1009.9
20260505033524 66 191 0.9 0.9 0.00 0.00 0.00 58 1009.8
20260505033023 66 75 0.9 0.9 0.00 0.00 0.00 58 1009.8
20260505032520 67 57 0.0 0.0 0.00 0.00 0.00 58 1009.8
20260505032016 67 50 0.0 0.0 0.00 0.00 0.00 57 1009.7
20260505031514 68 54 0.0 0.0 0.00 0.00 0.00 56 1009.7
20260505031010 68 117 0.9 0.9 0.00 0.00 0.00 56 1009.4
20260505030507 68 64 0.0 0.9 0.00 0.00 0.00 55 1009.4
20260505030002 68 45 0.9 1.7 0.00 0.00 0.00 56 1009.4
20260505025459 67 50 0.0 0.0 0.00 0.00 0.00 56 1009.2
20260505024958 67 35 0.0 0.0 0.00 0.00 0.00 57 1009.3
20260505024454 67 9 0.9 1.7 0.00 0.00 0.00 56 1009.0
20260505023951 67 58 0.0 0.0 0.00 0.00 0.00 56 1008.8
20260505023448 67 48 0.0 0.0 0.00 0.00 0.00 56 1009.0
20260505022946 67 55 0.0 0.0 0.00 0.00 0.00 57 1009.0
20260505022443 66 64 0.0 0.9 0.00 0.00 0.00 57 1009.0
20260505021940 66 65 0.0 0.9 0.00 0.00 0.00 57 1008.9
20260505021437 66 57 0.0 0.0 0.00 0.00 0.00 56 1008.9
20260505020932 67 57 0.0 0.0 0.00 0.00 0.00 55 1009.0
20260505020428 68 55 0.0 0.0 0.00 0.00 0.00 54 1008.8
20260505015925 68 54 0.0 0.0 0.00 0.00 0.00 53 1008.8
20260505015422 68 57 0.0 0.0 0.00 0.00 0.00 52 1008.6
20260505014920 69 50 0.0 0.0 0.00 0.00 0.00 51 1008.6
20260505014416 69 50 0.0 0.0 0.00 0.00 0.00 50 1008.6
20260505013913 69 70 0.0 0.0 0.00 0.00 0.00 49 1008.5
20260505013410 69 54 0.0 0.0 0.00 0.00 0.00 49 1008.4
20260505012908 69 49 0.0 0.0 0.00 0.00 0.00 50 1008.5
20260505012406 69 86 0.0 0.9 0.00 0.00 0.00 49 1008.5
20260505011902 69 41 0.0 0.0 0.00 0.00 0.00 49 1008.4
20260505011359 70 173 0.0 1.7 0.00 0.00 0.00 48 1008.3
20260505010855 70 53 0.0 0.0 0.00 0.00 0.00 47 1008.5
20260505010351 71 60 0.0 0.0 0.00 0.00 0.00 46 1008.4
20260505005847 72 46 0.0 0.0 0.00 0.00 0.00 45 1008.2
20260505005344 73 40 0.0 0.0 0.00 0.00 0.00 43 1008.3
20260505004842 73 67 0.0 0.0 0.00 0.00 0.00 42 1008.3
20260505004338 74 322 1.7 1.7 0.00 0.00 0.00 41 1008.5
20260505003835 75 4 0.0 0.9 0.00 0.00 0.00 40 1008.4
20260505003332 75 352 2.6 2.6 0.00 0.00 0.00 39 1008.4
20260505002828 75 142 0.9 1.7 0.00 0.00 0.00 39 1008.4
20260505002325 76 279 3.5 5.2 0.00 0.00 0.00 38 1008.5
20260505001824 76 334 2.6 3.5 0.00 0.00 0.00 37 1008.3
20260505001320 76 298 2.6 2.6 0.00 0.00 0.00 37 1008.4
20260505000818 76 317 3.5 5.2 0.00 0.00 0.00 36 1008.3
20260505000315 77 206 2.6 7.0 0.00 0.00 0.00 36 1008.5
20260504235812 77 337 3.5 3.5 0.00 0.00 0.00 36 1008.3
20260504235309 77 329 2.6 2.6 0.00 0.00 0.00 36 1008.3
20260504234805 77 311 1.7 2.6 0.00 0.00 0.00 36 1008.6
20260504234303 77 280 5.2 6.1 0.00 0.00 0.00 35 1008.5
20260504233759 78 314 4.3 7.0 0.00 0.00 0.00 35 1008.4
20260504233255 78 246 7.0 8.7 0.00 0.00 0.00 35 1008.7
20260504232752 78 284 10.4 13.0 0.00 0.00 0.00 33 1008.6
20260504232249 78 250 5.2 6.1 0.00 0.00 0.00 34 1008.7
20260504231746 78 305 2.6 2.6 0.00 0.00 0.00 35 1008.7
20260504231242 78 228 4.3 7.0 0.00 0.00 0.00 35 1008.7
20260504230738 79 308 7.8 13.0 0.00 0.00 0.00 34 1008.9
20260504230237 79 39 3.5 3.5 0.00 0.00 0.00 36 1008.9
20260504225735 79 208 2.6 3.5 0.00 0.00 0.00 35 1009.0
20260504225231 79 118 1.7 1.7 0.00 0.00 0.00 36 1008.8
20260504224729 79 143 4.3 6.1 0.00 0.00 0.00 34 1009.0
20260504224226 80 189 2.6 3.5 0.00 0.00 0.00 35 1009.0
20260504223722 80 124 1.7 1.7 0.00 0.00 0.00 35 1009.0
20260504223217 80 311 2.6 3.5 0.00 0.00 0.00 35 1009.0
20260504222715 80 93 4.3 7.0 0.00 0.00 0.00 34 1009.0
20260504222212 81 282 5.2 7.8 0.00 0.00 0.00 34 1008.9
20260504221709 81 339 3.5 3.5 0.00 0.00 0.00 35 1008.8
20260504221206 81 101 5.2 8.7 0.00 0.00 0.00 35 1008.8
20260504220702 82 241 3.5 3.5 0.00 0.00 0.00 35 1008.7
20260504220200 82 61 1.7 3.5 0.00 0.00 0.00 36 1008.9
20260504215656 81 30 0.9 1.7 0.00 0.00 0.00 35 1008.9
20260504215154 81 308 2.6 2.6 0.00 0.00 0.00 34 1008.7
20260504214649 82 184 3.5 5.2 0.00 0.00 0.00 34 1008.7
20260504214146 81 42 2.6 2.6 0.00 0.00 0.00 34 1008.9
20260504213643 81 199 2.6 2.6 0.00 0.00 0.00 34 1008.7
20260504213139 82 358 5.2 6.1 0.00 0.00 0.00 33 1009.0
20260504212635 82 334 7.8 11.3 0.00 0.00 0.00 32 1009.0
20260504212132 81 267 2.6 3.5 0.00 0.00 0.00 35 1008.7
20260504211630 81 202 0.9 2.6 0.00 0.00 0.00 36 1008.7
20260504211126 81 321 1.7 3.5 0.00 0.00 0.00 35 1008.6
20260504210624 82 352 6.1 8.7 0.00 0.00 0.00 33 1008.7
20260504210120 81 294 2.6 3.5 0.00 0.00 0.00 36 1008.8
20260504205618 81 306 6.1 8.7 0.00 0.00 0.00 34 1008.9
20260504205115 82 268 7.0 8.7 0.00 0.00 0.00 35 1009.0
20260504204614 81 310 3.5 6.1 0.00 0.00 0.00 35 1008.9
20260504204112 81 334 5.2 6.1 0.00 0.00 0.00 35 1009.0
20260504203610 82 235 5.2 7.0 0.00 0.00 0.00 34 1009.1
20260504203108 82 116 1.7 1.7 0.00 0.00 0.00 34 1009.3
20260504202602 82 38 1.7 3.5 0.00 0.00 0.00 37 1009.1
20260504201516 82 309 5.2 7.0 0.00 0.00 0.00 35 1009.5
20260504201014 82 309 5.2 7.0 0.00 0.00 0.00 35 1009.5
20260504200510 82 59 2.6 3.5 0.00 0.00 0.00 38 1009.4
20260504200007 82 53 1.7 3.5 0.00 0.00 0.00 36 1009.6
20260504195503 81 104 2.6 5.2 0.00 0.00 0.00 36 1009.5
20260504194959 82 290 3.5 3.5 0.00 0.00 0.00 36 1009.6
20260504194455 82 358 1.7 2.6 0.00 0.00 0.00 38 1009.7
20260504193951 82 251 4.3 6.1 0.00 0.00 0.00 36 1009.9
20260504193449 81 303 7.0 8.7 0.00 0.00 0.00 35 1009.9
20260504192947 81 316 3.5 3.5 0.00 0.00 0.00 36 1009.8
20260504192444 81 156 5.2 7.8 0.00 0.00 0.00 35 1009.9
20260504191943 81 259 2.6 6.1 0.00 0.00 0.00 38 1010.0
20260504191441 82 237 6.1 7.8 0.00 0.00 0.00 35 1010.1
20260504190935 81 333 1.7 1.7 0.00 0.00 0.00 38 1010.1
20260504190431 81 260 5.2 7.0 0.00 0.00 0.00 36 1010.0
20260504185928 81 302 5.2 7.0 0.00 0.00 0.00 35 1010.4
20260504185426 81 40 2.6 3.5 0.00 0.00 0.00 36 1010.3
20260504184921 81 284 3.5 3.5 0.00 0.00 0.00 37 1010.3
20260504184417 80 296 5.2 7.0 0.00 0.00 0.00 37 1010.4
20260504183913 80 153 2.6 3.5 0.00 0.00 0.00 38 1010.4
20260504183411 80 232 4.3 7.8 0.00 0.00 0.00 37 1010.6
20260504182909 80 349 1.7 2.6 0.00 0.00 0.00 36 1010.6
20260504182405 80 184 2.6 2.6 0.00 0.00 0.00 37 1010.4
20260504181902 80 297 6.1 7.8 0.00 0.00 0.00 37 1010.9
20260504181359 80 305 3.5 7.0 0.00 0.00 0.00 39 1010.5
20260504180858 81 24 3.5 5.2 0.00 0.00 0.00 38 1010.8
20260504180356 80 43 1.7 2.6 0.00 0.00 0.00 38 1010.8
20260504175854 80 323 6.1 8.7 0.00 0.00 0.00 37 1010.9
20260504175351 79 82 2.6 5.2 0.00 0.00 0.00 39 1010.8
20260504174849 79 329 5.2 7.8 0.00 0.00 0.00 39 1011.1
20260504174346 79 293 5.2 7.0 0.00 0.00 0.00 37 1011.0
20260504173843 79 20 3.5 6.1 0.00 0.00 0.00 39 1011.0
20260504173340 80 311 6.1 8.7 0.00 0.00 0.00 38 1011.1
20260504172837 80 37 3.5 6.1 0.00 0.00 0.00 39 1011.2
20260504172333 79 234 7.8 8.7 0.00 0.00 0.00 37 1011.3
20260504171829 79 339 5.2 9.6 0.00 0.00 0.00 38 1011.1
20260504171327 79 185 3.5 6.1 0.00 0.00 0.00 38 1011.1
20260504170824 79 223 7.0 9.6 0.00 0.00 0.00 38 1011.5
20260504170321 79 260 5.2 7.0 0.00 0.00 0.00 38 1011.6
20260504160239 77 265 4.3 6.1 0.00 0.00 0.00 43 1012.0